This is the latest recevied weather packets stored in our database for station/object HS5BOG-13. If no packets are shown the sender has not sent any weather packets the latest 10 day(s).
| Time | Temp. | Humidity | Pressure | Rain* | Wind** | Luminosity | Snow |
|---|---|---|---|---|---|---|---|
| 1788257367 | 30° C | 89% | 988.5 hPa | - | - | - | - |
| 1788256762 | 30° C | 86% | 988.4 hPa | - | - | - | - |
| 1788256156 | 30° C | 85% | 988.4 hPa | - | - | - | - |
| 1788255551 | 30° C | 88% | 988.4 hPa | - | - | - | - |
| 1788254945 | 30° C | 88% | 988.5 hPa | - | - | - | - |
| 1788254339 | 30° C | 88% | 988.5 hPa | - | - | - | - |
| 1788253734 | 30.56° C | 86% | 988.5 hPa | - | - | - | - |
| 1788253128 | 30.56° C | 86% | 988.7 hPa | - | - | - | - |
| 1788252523 | 30.56° C | 90% | 988.7 hPa | - | - | - | - |
| 1788251918 | 30° C | 89% | 988.8 hPa | - | - | - | - |
| 1788251312 | 30.56° C | 87% | 988.9 hPa | - | - | - | - |
| 1788250706 | 30.56° C | 88% | 988.9 hPa | - | - | - | - |
| 1788250101 | 30° C | 87% | 988.9 hPa | - | - | - | - |
| 1788249495 | 30° C | 88% | 988.9 hPa | - | - | - | - |
| 1788248890 | 30.56° C | 85% | 989.2 hPa | - | - | - | - |
| 1788248285 | 30° C | 85% | 989.2 hPa | - | - | - | - |
| 1788247679 | 30° C | 85% | 989.3 hPa | - | - | - | - |
| 1788247074 | 30° C | 83% | 989.4 hPa | - | - | - | - |
| 1788246468 | 30° C | 82% | 989.6 hPa | - | - | - | - |
| 1788245863 | 30° C | 83% | 989.6 hPa | - | - | - | - |
| 1788245257 | 30° C | 82% | 989.9 hPa | - | - | - | - |
| 1788244652 | 30° C | 85% | 990.1 hPa | - | - | - | - |
| 1788244046 | 29.44° C | 87% | 990.2 hPa | - | - | - | - |
| 1788243441 | 30° C | 83% | 990.5 hPa | - | - | - | - |
| 1788242835 | 29.44° C | 87% | 990.6 hPa | - | - | - | - |
* Rain since midnight (hover to see other rain measurements)
** Current wind speed in m/s (hover to see current wind gust speed)